Erie, PA

1:39 AM EDT on May 23, 2017 (GMT -0400)
Erie International

Weather History for KERI - April, 2014

Change the Weather History Date:

Saturday, April 12, 2014

  Actual Average Record
Temperature  
Mean Temperature 59 °F 46 °F  
Max Temperature 70 °F 55 °F 85 °F (2001)
Min Temperature 47 °F 37 °F 17 °F (1874)
Degree Days  
Heating Degree Days 6 19  
Month to date heating degree days 239 257  
Since 1 July heating degree days 6199 5533  
Cooling Degree Days 0 0  
Month to date cooling degree days 0 0  
Year to date cooling degree days 0 1  
Growing Degree Days 7 (Base 50)    
Moisture  
Dew Point 37 °F    
Average Humidity 53    
Maximum Humidity 82    
Minimum Humidity 24    
Precipitation  
Precipitation 0.00 in 0.12 in 1.40 in (1981)
Month to date precipitation 1.65 1.40  
Year to date precipitation 10.73 9.69  
Snow  
Snow 0.00 in 0.20 in - ()
Month to date snowfall T 2.3  
Since 1 July snowfall 137.2 100.0  
Snow Depth 0.00 in    
Sea Level Pressure  
Sea Level Pressure 30.07 in    
Wind  
Wind Speed 9 mph (SSE)    
Max Wind Speed 20 mph    
Max Gust Speed 26 mph    
Visibility 10 miles    
Events      
T = Trace of Precipitation, MM = Missing Value Source: NWS Daily Summary

Daily Weather History Graph

Daily Weather History Graph

Search for Another Location

Airport or City:

Trip Planner

Search our weather history database for the weather conditions in past years. The results will help you decide how hot, cold, wet, or windy it might be!

Date:

Astronomy

Apr. 12, 2014 Rise Set
Actual Time 6:45 AM EDT 7:58 PM EDT
Civil Twilight 6:16 AM EDT 8:27 PM EDT
Nautical Twilight 5:41 AM EDT 9:02 PM EDT
Astronomical Twilight 5:05 AM EDT 9:38 PM EDT
Moon 5:33 PM EDT (4/12) 5:13 AM EDT (4/12)
Length of Visible Light 14h 11m
Length of Day
13h 13m
Waxing Gibbous, 93% of the Moon is Illuminated
Apr 12
Waxing Gibbous
Apr 15
Full
Apr 22
Last Quarter
Apr 29
New
May 6
First Quarter

Hourly Weather History & Observations

Time (EDT) Temp. Dew Point Humidity Pressure Visibility Wind Dir Wind Speed Gust Speed Precip Events Conditions
12:51 AM 46.9 °F 41.0 °F 80% 30.07 in 10.0 mi South 6.9 mph - N/A   Clear
1:51 AM 48.0 °F 41.0 °F 77% 30.07 in 10.0 mi South 6.9 mph - N/A   Clear
2:51 AM 46.9 °F 39.9 °F 77% 30.07 in 10.0 mi SSW 6.9 mph - N/A   Clear
3:51 AM 48.0 °F 39.9 °F 74% 30.10 in 10.0 mi SSW 8.1 mph - N/A   Clear
4:51 AM 48.0 °F 39.0 °F 71% 30.12 in 10.0 mi SSW 6.9 mph - N/A   Partly Cloudy
5:51 AM 48.0 °F 39.0 °F 71% 30.13 in 10.0 mi South 9.2 mph - N/A   Clear
6:51 AM 46.9 °F 39.0 °F 74% 30.15 in 10.0 mi South 6.9 mph - N/A   Clear
7:51 AM 46.9 °F 39.9 °F 77% 30.16 in 10.0 mi South 10.4 mph - N/A   Clear
8:51 AM 51.1 °F 41.0 °F 68% 30.17 in 10.0 mi South 8.1 mph - N/A   Clear
9:51 AM 57.0 °F 42.1 °F 57% 30.16 in 10.0 mi South 9.2 mph - N/A   Clear
10:51 AM 62.1 °F 39.9 °F 44% 30.16 in 10.0 mi SSE 10.4 mph - N/A   Clear
11:51 AM 66.9 °F 35.1 °F 31% 30.14 in 10.0 mi WSW 8.1 mph - N/A   Clear
12:51 PM 69.1 °F 32.0 °F 25% 30.11 in 10.0 mi SW 13.8 mph 20.7 mph N/A   Clear
1:51 PM 66.9 °F 35.1 °F 31% 30.09 in 10.0 mi NW 8.1 mph - N/A   Clear
2:51 PM 62.1 °F 36.0 °F 38% 30.10 in 10.0 mi North 8.1 mph - N/A   Clear
3:51 PM 59.0 °F 39.0 °F 48% 30.08 in 10.0 mi NE 6.9 mph - N/A   Clear
4:51 PM 61.0 °F 37.0 °F 41% 30.06 in 10.0 mi ENE 8.1 mph - N/A   Mostly Cloudy
5:51 PM 63.0 °F 35.1 °F 35% 30.03 in 10.0 mi ENE 9.2 mph - N/A   Clear
6:51 PM 61.0 °F 37.9 °F 42% 30.01 in 10.0 mi ENE 8.1 mph - N/A   Mostly Cloudy
7:51 PM 61.0 °F 39.0 °F 44% 29.99 in 8.0 mi ESE 4.6 mph - N/A   Clear
8:51 PM 64.0 °F 34.0 °F 33% 29.97 in 10.0 mi SE 6.9 mph - N/A   Mostly Cloudy
9:51 PM 64.9 °F 30.9 °F 28% 29.93 in 10.0 mi SSE 11.5 mph 19.6 mph N/A   Clear
10:51 PM 66.0 °F 28.9 °F 25% 29.89 in 10.0 mi SSE 18.4 mph 24.2 mph N/A   Mostly Cloudy
11:51 PM 66.9 °F 28.9 °F 24% 29.87 in 10.0 mi South 16.1 mph 25.3 mph N/A   Overcast